Find Starlink 11306

NORAD ID: 61254 Int'l Des: 2024-175 Owner: SPXS Country: US Constellation: starlink operational
LEOCIRCULAR

Current View

Loading 3D Globe...

About Starlink 11306

Starlink 11306 (NORAD 61254) is a starlink constellation satellite (v2 mini d2c) launched Sep 25, 2024 by SPXS of US. It operates in LEO, CIRCULAR orbit with a mass of 960.00 kg.

About Starlink 11306

Description loading...

Upcoming Passes

Passes for default location (London). Set your location on the main map for personalized predictions.

Altitude History

Loading altitude history...

Two-Line Element Set

1 61254U 24175M 26170.68179391 -.00000065 00000-0 43233-5 0 9999
2 61254 53.1590 273.6120 0001039 88.0831 272.0306 15.69718047100587
Epoch: Jun 19, 2026 • Age: 20 hours

Current Status

Altitude 360.7 km
Velocity 7.70 km/s
Sub-Earth Point 28.25°N, 161.34°W
Launch Date Sep 25, 2024
Age 1.7 years
Type internet

Technical Details

Classification Payload
Mass 960.00 kg
Dry Mass 910.00 kg
Total Mass 960.00 kg
Length 0.30 m
Diameter 4.10 m
Span 29.00 m
Shape Box + pan
Manufacturer SPXS
Bus Type Starlink V2MD
Phase Status In Orbit
Owner/State SPXS/US

Most Searched